Chippewa, MI

4:29 PM EDT on October 19, 2019 (GMT -0400)
Chippewa County International

Weather History for KCIU - August, 2019

Change the Weather History Date:

Tuesday, August 27, 2019

  Actual Average Record
Temperature  
Mean Temperature 64 °F -  
Max Temperature 72 °F 73 °F 85 °F (1983)
Min Temperature 55 °F 52 °F 41 °F (1992)
Degree Days  
Heating Degree Days 2    
Growing Degree Days 14 (Base 50)    
Moisture  
Dew Point 61 °F    
Average Humidity 84    
Maximum Humidity 100    
Minimum Humidity 61    
Precipitation  
Precipitation 0.02 in - - ()
Sea Level Pressure  
Sea Level Pressure 29.64 in    
Wind  
Wind Speed 13 mph ()    
Max Wind Speed 26 mph    
Max Gust Speed 43 mph    
Visibility 9.7 miles    
Events Rain , Thunderstorm    
Averages and records for this station are not official NWS values.
T = Trace of Precipitation, MM = Missing Value Source: Averaged Metar Reports

Daily Weather History Graph

Daily Weather History Graph

Search for Another Location

Airport or City:

Astronomy

Aug. 27, 2019 Rise Set
Actual Time 6:51 AM EDT 8:26 PM EDT
Civil Twilight 6:20 AM EDT 8:57 PM EDT
Nautical Twilight 5:41 AM EDT 9:35 PM EDT
Astronomical Twilight 5:00 AM EDT 10:17 PM EDT
Moon 3:02 AM EDT (8/27) 6:57 PM EDT (8/27)
Length of Visible Light 14h 37m
Length of Day
13h 34m
Waning Crescent, 11% of the Moon is Illuminated
Aug 27
Waning Crescent
Aug 30
New
Sep 5
First Quarter
Sep 14
Full
Sep 21
Last Quarter

Hourly Weather History & Observations

Time (EDT) Temp. Dew Point Humidity Pressure Visibility Wind Dir Wind Speed Gust Speed Precip Events Conditions
12:56 AM 63.0 °F 62.1 °F 97% 29.69 in 10.0 mi SE 26.5 mph 35.7 mph 0.01 in Rain Light Rain
1:56 AM 63.0 °F 62.1 °F 97% 29.65 in 10.0 mi SE 25.3 mph 32.2 mph 0.00 in   Overcast
2:56 AM 63.0 °F 62.1 °F 97% 29.61 in 9.0 mi SE 19.6 mph 32.2 mph 0.01 in Rain Light Rain
3:28 AM 62.6 °F 62.6 °F 100% 29.60 in 9.0 mi SE 23.0 mph 29.9 mph N/A Rain Light Rain
3:56 AM 63.0 °F 63.0 °F 100% 29.57 in 8.0 mi SE 17.3 mph 27.6 mph N/A Rain Light Rain
4:56 AM 64.0 °F 63.0 °F 96% 29.54 in 6.0 mi SSE 16.1 mph - N/A Rain Light Rain
5:56 AM 64.0 °F 63.0 °F 96% 29.53 in 10.0 mi South 10.4 mph 20.7 mph N/A Rain Light Rain
6:56 AM 64.9 °F 64.0 °F 97% 29.54 in 9.0 mi SSW 6.9 mph - N/A Rain Light Rain
7:52 AM 66.2 °F 64.4 °F 94% 29.57 in 10.0 mi WSW 10.4 mph 16.1 mph N/A   Overcast
7:56 AM 66.0 °F 64.9 °F 96% 29.56 in 10.0 mi SW 10.4 mph 16.1 mph N/A   Overcast
8:15 AM 66.2 °F 64.4 °F 94% 29.59 in 10.0 mi WSW 9.2 mph - N/A Rain Light Rain
8:56 AM 66.0 °F 64.0 °F 93% 29.59 in 10.0 mi WSW 5.8 mph 16.1 mph N/A   Overcast
9:14 AM 66.2 °F 64.4 °F 94% 29.60 in 10.0 mi SW 6.9 mph - N/A   Overcast
9:29 AM 66.2 °F 64.4 °F 94% 29.61 in 10.0 mi SW 10.4 mph 16.1 mph N/A   Overcast
9:42 AM 66.2 °F 62.6 °F 88% 29.62 in 10.0 mi WSW 10.4 mph 16.1 mph N/A   Overcast
9:56 AM 66.9 °F 62.1 °F 84% 29.61 in 10.0 mi SW 10.4 mph - N/A   Overcast
10:56 AM 66.9 °F 63.0 °F 87% 29.62 in 10.0 mi SW 9.2 mph - N/A   Overcast
11:31 AM 68.0 °F 62.6 °F 83% 29.65 in 10.0 mi SSW 8.1 mph - N/A   Overcast
11:56 AM 69.1 °F 61.0 °F 75% 29.64 in 10.0 mi SSW 8.1 mph 16.1 mph N/A   Scattered Clouds
12:23 PM 69.8 °F 60.8 °F 73% 29.65 in 10.0 mi SW 9.2 mph 16.1 mph N/A   Mostly Cloudy
12:56 PM 70.0 °F 62.1 °F 76% 29.65 in 10.0 mi WSW 9.2 mph - N/A   Overcast
1:56 PM 71.1 °F 61.0 °F 70% 29.64 in 10.0 mi WSW 12.7 mph 20.7 mph N/A   Overcast
2:37 PM 69.8 °F 59.0 °F 68% 29.66 in 10.0 mi WSW 11.5 mph 24.2 mph N/A   Overcast
2:56 PM 70.0 °F 59.0 °F 68% 29.65 in 10.0 mi WSW 9.2 mph 18.4 mph N/A   Overcast
3:05 PM 69.8 °F 59.0 °F 68% 29.67 in 10.0 mi WSW 12.7 mph 19.6 mph N/A   Overcast
3:56 PM 72.0 °F 57.9 °F 61% 29.66 in 10.0 mi WSW 11.5 mph 26.5 mph N/A   Mostly Cloudy
4:56 PM 71.1 °F 57.9 °F 63% 29.66 in 10.0 mi SW 6.9 mph 18.4 mph N/A   Partly Cloudy
5:54 PM 71.6 °F 60.8 °F 69% 29.68 in 10.0 mi SW 11.5 mph 18.4 mph N/A   Mostly Cloudy
5:56 PM 71.1 °F 60.1 °F 68% 29.67 in 10.0 mi SW 11.5 mph 18.4 mph N/A   Mostly Cloudy
6:05 PM 71.6 °F 60.8 °F 69% 29.68 in 10.0 mi SSW 9.2 mph 18.4 mph N/A   Scattered Clouds
6:19 PM 71.6 °F 59.0 °F 64% 29.69 in 10.0 mi SW 12.7 mph 18.4 mph N/A   Mostly Cloudy
6:56 PM 70.0 °F 60.1 °F 71% 29.69 in 10.0 mi SW 9.2 mph 20.7 mph N/A   Mostly Cloudy
7:20 PM 66.2 °F 57.2 °F 73% 29.74 in 10.0 mi West 26.5 mph 42.6 mph N/A   Scattered Clouds
7:56 PM 55.9 °F 54.0 °F 93% 29.77 in 9.0 mi WSW 6.9 mph - N/A Rain Light Rain
8:56 PM 57.0 °F 54.0 °F 89% 29.71 in 10.0 mi South 8.1 mph - N/A Rain Light Rain
9:56 PM 55.9 °F 54.0 °F 93% 29.72 in 10.0 mi SSW 3.5 mph - N/A   Partly Cloudy
10:56 PM 57.0 °F 55.0 °F 93% 29.71 in 10.0 mi SSW 4.6 mph - N/A   Clear
11:35 PM 57.2 °F 55.4 °F 94% 29.71 in 7.0 mi WNW 4.6 mph - N/A Rain , Thunderstorm Heavy Rain
11:56 PM 57.0 °F 55.9 °F 96% 29.70 in 10.0 mi Calm Calm - N/A Rain , Thunderstorm Light Rain